Weather History for Fergus Falls, MN

Change the Weather History Date:

Thursday, June 27, 2013

  Actual Average Record
Temperature  
Mean Temperature 72 °F -  
Max Temperature 82 °F 77 °F 94 °F (1961)
Min Temperature 62 °F 56 °F 44 °F (1968)
Cooling Degree Days 7    
Growing Degree Days 22 (Base 50)    
Moisture  
Dew Point 59 °F    
Average Humidity 65    
Maximum Humidity 100    
Minimum Humidity 32    
Precipitation  
Precipitation 0.00 in - - ()
Sea Level Pressure  
Sea Level Pressure 29.85 in    
Wind  
Wind Speed 8 mph (NW)    
Max Wind Speed 24 mph    
Max Gust Speed 32 mph    
Visibility 10 miles    
Events      
Averages and records for this station are not official NWS values.
T = Trace of Precipitation, MM = Missing Value Source: NWS Daily Summary

Daily Weather History Graph

Daily Weather History Graph

Search for Another Location

Airport:

Trip Planner

Search our weather history database for the weather conditions in past years. The results will help you decide how hot, cold, wet, or windy it might be!

Date:

Astronomy

Jun. 27, 2013 Rise Set
Actual Time 5:34 AM CDT 9:20 PM CDT
Civil Twilight 4:55 AM CDT 9:59 PM CDT
Nautical Twilight 4:03 AM CDT 10:51 PM CDT
Astronomical Twilight 2:49 AM CDT 12:05 AM CDT
Moon 11:57 PM CDT (6/27) 10:55 AM CDT (6/27)
Length of Visible Light 17h 03m
Length of Day
15h 46m
Waning Gibbous, 76% of the Moon is Illuminated
Jun 27
Waning Gibbous
Jun 29
Last Quarter
Jul 8
New
Jul 15
First Quarter
Jul 22
Full

Hourly Weather History & Observations

Time (CDT) Temp. Heat Index Dew Point Humidity Pressure Visibility Wind Dir Wind Speed Gust Speed Precip Events Conditions
12:14 AM 68.0 °F - 64.4 °F 88% 29.82 in 10.0 mi Calm Calm - N/A   Clear
12:33 AM 68.0 °F - 64.4 °F 88% 29.82 in 10.0 mi Calm Calm - N/A   Clear
12:53 AM 69.8 °F - 64.4 °F 83% 29.82 in 10.0 mi Calm Calm - N/A   Clear
1:14 AM 68.0 °F - 64.4 °F 88% 29.82 in 10.0 mi SW 3.5 mph - N/A   Clear
1:33 AM 66.2 °F - 64.4 °F 94% 29.83 in 10.0 mi Calm Calm - N/A   Clear
1:53 AM 64.4 °F - 64.4 °F 100% 29.83 in 10.0 mi West 4.6 mph - N/A   Clear
2:14 AM 64.4 °F - 64.4 °F 100% 29.83 in 10.0 mi Calm Calm - N/A   Clear
2:33 AM 64.4 °F - 64.4 °F 100% 29.83 in 10.0 mi West 3.5 mph - N/A   Clear
2:53 AM 64.4 °F - 64.4 °F 100% 29.83 in 10.0 mi West 4.6 mph - N/A   Clear
3:14 AM 64.4 °F - 64.4 °F 100% 29.83 in 10.0 mi WSW 4.6 mph - N/A   Clear
3:33 AM 64.4 °F - 64.4 °F 100% 29.82 in 10.0 mi West 4.6 mph - N/A   Clear
3:53 AM 64.4 °F - 64.4 °F 100% 29.83 in 10.0 mi Calm Calm - N/A   Clear
4:13 AM 64.4 °F - 64.4 °F 100% 29.82 in 10.0 mi WSW 3.5 mph - N/A   Clear
4:33 AM 64.4 °F - 64.4 °F 100% 29.83 in 10.0 mi Calm Calm - N/A   Clear
4:53 AM 62.6 °F - 62.6 °F 100% 29.83 in 10.0 mi West 5.8 mph - N/A   Clear
5:13 AM 64.4 °F - 62.6 °F 94% 29.83 in 10.0 mi WNW 4.6 mph - N/A   Clear
5:33 AM 62.6 °F - 62.6 °F 100% 29.84 in 10.0 mi NW 3.5 mph - N/A   Clear
5:53 AM 62.6 °F - 60.8 °F 94% 29.84 in 10.0 mi WNW 3.5 mph - N/A   Clear
6:13 AM 62.6 °F - 60.8 °F 94% 29.84 in 10.0 mi WNW 4.6 mph - N/A   Clear
6:33 AM 64.4 °F - 62.6 °F 94% 29.84 in 10.0 mi WNW 8.1 mph - N/A   Clear
6:53 AM 66.2 °F - 62.6 °F 88% 29.85 in 10.0 mi WNW 6.9 mph - N/A   Clear
7:13 AM 66.2 °F - 60.8 °F 83% 29.85 in 10.0 mi WNW 5.8 mph - N/A   Clear
7:33 AM 68.0 °F - 62.6 °F 83% 29.86 in 10.0 mi WNW 8.1 mph - N/A   Clear
7:53 AM 68.0 °F - 62.6 °F 83% 29.86 in 10.0 mi NW 5.8 mph - N/A   Clear
8:13 AM 69.8 °F - 60.8 °F 73% 29.87 in 10.0 mi WNW 11.5 mph - N/A   Clear
8:33 AM 71.6 °F - 60.8 °F 69% 29.86 in 10.0 mi NW 9.2 mph - N/A   Clear
8:53 AM 71.6 °F - 60.8 °F 69% 29.86 in 10.0 mi NW 11.5 mph 18.4 mph N/A   Clear
9:13 AM 73.4 °F - 59.0 °F 61% 29.86 in 10.0 mi NW 17.3 mph 21.9 mph N/A   Clear
9:33 AM 73.4 °F - 57.2 °F 57% 29.86 in 10.0 mi NW 20.7 mph 24.2 mph N/A   Clear
9:53 AM 73.4 °F - 59.0 °F 61% 29.86 in 10.0 mi NW 20.7 mph 25.3 mph N/A   Clear
10:13 AM 75.2 °F - 59.0 °F 57% 29.86 in 10.0 mi NW 17.3 mph - N/A   Clear
10:33 AM 75.2 °F - 59.0 °F 57% 29.87 in 10.0 mi NNW 13.8 mph 20.7 mph N/A   Clear
10:53 AM 75.2 °F - 60.8 °F 61% 29.87 in 10.0 mi NW 12.7 mph 24.2 mph N/A   Clear
11:13 AM 75.2 °F - 59.0 °F 57% 29.87 in 10.0 mi NW 17.3 mph - N/A   Clear
11:33 AM 77.0 °F - 60.8 °F 57% 29.87 in 10.0 mi NW 15.0 mph 25.3 mph N/A   Clear
11:53 AM 77.0 °F - 60.8 °F 57% 29.87 in 10.0 mi NNW 16.1 mph 25.3 mph N/A   Clear
12:13 PM 77.0 °F - 59.0 °F 54% 29.87 in 10.0 mi NNW 17.3 mph 24.2 mph N/A   Clear
12:33 PM 78.8 °F - 60.8 °F 54% 29.87 in 10.0 mi NW 15.0 mph 20.7 mph N/A   Clear
12:53 PM 78.8 °F - 57.2 °F 47% 29.87 in 10.0 mi NW 18.4 mph 26.5 mph N/A   Clear
1:13 PM 78.8 °F - 57.2 °F 47% 29.87 in 10.0 mi NW 18.4 mph 24.2 mph N/A   Scattered Clouds
1:33 PM 78.8 °F - 59.0 °F 51% 29.88 in 10.0 mi NW 15.0 mph 20.7 mph N/A   Clear
1:53 PM 78.8 °F - 59.0 °F 51% 29.87 in 10.0 mi WNW 16.1 mph 27.6 mph N/A   Clear
2:13 PM 80.6 °F 81.1 °F 59.0 °F 48% 29.87 in 10.0 mi WNW 19.6 mph 24.2 mph N/A   Scattered Clouds
2:33 PM 80.6 °F 81.5 °F 60.8 °F 51% 29.87 in 10.0 mi NW 16.1 mph 23.0 mph N/A   Scattered Clouds
2:53 PM 80.6 °F 81.5 °F 60.8 °F 51% 29.86 in 10.0 mi WNW 17.3 mph 23.0 mph N/A   Scattered Clouds
3:13 PM 80.6 °F 81.1 °F 59.0 °F 48% 29.86 in 10.0 mi WNW 16.1 mph 19.6 mph N/A   Scattered Clouds
3:33 PM 82.4 °F 82.0 °F 57.2 °F 42% 29.85 in 10.0 mi West 16.1 mph - N/A   Scattered Clouds
3:53 PM 82.4 °F 82.0 °F 57.2 °F 42% 29.85 in 10.0 mi WNW 17.3 mph 23.0 mph N/A   Clear
4:13 PM 80.6 °F 80.3 °F 53.6 °F 39% 29.84 in 10.0 mi WNW 18.4 mph 24.2 mph N/A   Clear
4:33 PM 80.6 °F 80.3 °F 53.6 °F 39% 29.84 in 10.0 mi WNW 18.4 mph 24.2 mph N/A   Scattered Clouds
4:53 PM 82.4 °F 81.4 °F 53.6 °F 37% 29.84 in 10.0 mi NW 21.9 mph 28.8 mph N/A   Scattered Clouds
5:13 PM 82.4 °F - 51.8 °F 35% 29.84 in 10.0 mi WNW 21.9 mph 32.2 mph N/A   Clear
5:33 PM 82.4 °F - 50.0 °F 32% 29.83 in 10.0 mi WNW 24.2 mph 32.2 mph N/A   Clear
5:53 PM 82.4 °F - 50.0 °F 32% 29.83 in 10.0 mi NW 23.0 mph 32.2 mph N/A   Clear
6:13 PM 82.4 °F - 50.0 °F 32% 29.83 in 10.0 mi NW 21.9 mph 29.9 mph N/A   Clear
6:33 PM 82.4 °F - 51.8 °F 35% 29.83 in 10.0 mi NNW 23.0 mph 27.6 mph N/A   Clear
6:53 PM 80.6 °F - 51.8 °F 37% 29.84 in 10.0 mi NW 19.6 mph 27.6 mph N/A   Clear
7:13 PM 80.6 °F - 51.8 °F 37% 29.84 in 10.0 mi NW 15.0 mph 26.5 mph N/A   Clear
7:33 PM 80.6 °F 80.3 °F 53.6 °F 39% 29.84 in 10.0 mi NW 19.6 mph 26.5 mph N/A   Clear
7:53 PM 78.8 °F - 55.4 °F 44% 29.84 in 10.0 mi NW 16.1 mph 21.9 mph N/A   Clear
8:13 PM 78.8 °F - 57.2 °F 47% 29.85 in 10.0 mi NNW 18.4 mph 32.2 mph N/A   Clear
8:33 PM 75.2 °F - 55.4 °F 50% 29.85 in 10.0 mi NNW 13.8 mph 24.2 mph N/A   Clear
8:53 PM 75.2 °F - 55.4 °F 50% 29.85 in 10.0 mi NNW 17.3 mph 25.3 mph N/A   Clear
9:13 PM 75.2 °F - 55.4 °F 50% 29.85 in 10.0 mi NNW 16.1 mph 23.0 mph N/A   Clear
9:33 PM 75.2 °F - 55.4 °F 50% 29.85 in 10.0 mi NNW 18.4 mph 25.3 mph N/A   Clear
9:53 PM 73.4 °F - 55.4 °F 53% 29.86 in 10.0 mi NNW 15.0 mph 21.9 mph N/A   Clear
10:13 PM 73.4 °F - 55.4 °F 53% 29.86 in 10.0 mi NNW 13.8 mph 20.7 mph N/A   Clear
10:33 PM 71.6 °F - 57.2 °F 60% 29.87 in 10.0 mi NW 10.4 mph - N/A   Clear
10:53 PM 68.0 °F - 57.2 °F 68% 29.87 in 10.0 mi NW 9.2 mph - N/A   Clear
11:13 PM 68.0 °F - 57.2 °F 68% 29.87 in 10.0 mi NNW 9.2 mph - N/A   Clear
11:33 PM 66.2 °F - 57.2 °F 73% 29.87 in 10.0 mi NW 8.1 mph - N/A   Clear
11:53 PM 66.2 °F - 57.2 °F 73% 29.87 in 10.0 mi NW 8.1 mph - N/A   Clear